Theta_e
361 362 363 363 364 366 364 363 365 365 366 364 363 363 362 362 362 362 364 362 361 362 363 361 361 361 359 359 361 362 361 362 362 362 364 364 364 364 362 362 361 359 357 356 356 354 354 353 352 353 354 353 354 355 355 355 355 356 355 355 355 354 354 354 354 354 354 353 353 354 354 353 353 353 353 352 352 352 351 351 351 352 354 353 353
361 362 362 362 363 365 365 365 364 365 365 364 363 362 361 363 363 362 362 362 362 363 360 357 356 357 358 356 357 357 359 359 361 362 363 364 364 363 362 362 361 360 358 356 356 354 354 354 354 353 353 353 354 354 354 355 355 355 355 355 355 354 354 354 354 354 354 354 354 354 354 354 354 354 354 354 353 352 351 352 352 352 353 354 354
362 363 362 363 363 365 364 366 363 364 366 364 365 363 363 363 364 362 362 363 362 360 357 356 356 354 354 353 351 356 356 359 357 360 359 362 364 364 364 362 361 360 360 357 356 356 355 355 355 355 353 353 353 355 354 354 355 354 353 354 353 354 354 354 354 354 354 354 354 354 354 354 354 354 355 354 353 352 351 351 352 352 352 353 353
364 365 363 363 362 363 364 364 363 365 366 364 363 364 365 365 365 366 366 365 360 354 354 350 351 349 351 348 351 353 354 356 354 357 360 362 361 363 364 363 361 360 360 357 358 356 356 356 355 355 355 355 355 355 355 355 355 354 353 351 351 351 352 354 354 355 355 354 354 354 354 354 354 355 355 354 354 353 353 352 353 352 352 353 353
364 365 365 363 363 365 363 364 365 366 366 366 366 365 366 365 364 366 364 361 352 351 353 348 347 349 348 345 352 354 357 357 357 357 358 361 362 363 363 361 363 360 359 358 358 357 357 356 356 356 356 356 354 355 354 354 354 353 352 351 352 351 351 353 353 354 353 354 352 354 355 355 355 355 355 355 354 354 354 354 354 354 353 353 353
366 366 365 363 364 365 364 363 365 367 367 368 364 363 363 364 363 362 354 352 350 351 347 347 345 348 346 346 353 355 353 349 351 354 358 358 358 361 363 362 366 363 364 360 357 358 358 356 356 356 356 355 356 354 354 353 354 353 352 352 352 350 350 351 352 352 351 352 353 353 354 353 354 354 354 354 354 353 352 352 353 353 353 354 354
366 365 364 364 362 361 364 363 366 368 365 367 363 363 364 363 362 359 355 350 349 350 349 348 347 348 351 351 349 353 353 347 354 355 357 362 363 362 362 363 367 364 365 365 357 357 356 354 354 354 355 355 355 354 354 354 354 354 353 353 351 350 350 349 350 352 351 353 353 353 353 353 353 353 354 354 354 353 352 352 353 353 353 353 354
367 366 364 364 361 361 361 366 368 367 366 367 365 360 363 363 363 358 351 347 349 348 349 348 348 347 350 352 351 352 349 350 354 352 355 360 361 362 362 363 363 366 362 364 362 358 356 356 353 354 353 352 355 354 354 355 355 354 353 352 352 351 348 348 350 351 351 351 353 353 353 352 353 353 353 353 353 353 352 351 351 349 353 354 354
368 368 365 365 363 363 362 366 368 366 367 366 363 363 362 360 361 358 353 348 345 344 346 348 347 348 348 345 348 352 347 352 352 352 356 357 360 361 363 362 362 360 365 366 362 362 358 357 355 354 354 355 353 353 353 354 354 353 354 353 351 351 351 349 350 350 351 352 352 353 353 353 353 353 353 353 353 352 352 352 351 351 350 353 353
369 368 365 366 365 365 363 366 367 367 367 366 366 364 363 361 360 359 354 351 344 342 342 347 348 347 348 345 352 349 350 352 354 354 353 355 358 361 362 364 364 363 364 364 364 363 364 358 354 354 353 351 351 351 353 354 354 354 354 352 351 353 353 351 351 350 351 350 351 352 352 352 353 353 352 351 351 351 351 351 350 349 351 351 350
369 368 366 365 366 366 366 367 367 368 368 365 365 363 363 361 356 357 355 351 348 346 345 348 348 348 345 347 351 355 354 355 357 356 352 351 354 361 362 364 363 363 364 362 362 362 363 364 362 361 358 350 353 353 352 353 353 354 353 354 353 352 352 353 353 352 352 350 350 351 350 351 353 352 352 351 350 349 350 350 351 351 352 351 350
369 369 368 367 366 365 366 367 367 367 366 362 362 362 362 359 358 354 353 353 353 351 348 347 348 348 348 349 353 354 356 353 356 355 356 353 355 360 358 361 362 361 359 361 361 359 361 363 363 361 361 358 356 354 354 354 354 354 354 354 354 353 352 353 353 353 352 352 352 352 351 351 351 352 351 350 350 350 349 348 347 349 349 351 351
369 369 368 367 368 366 366 367 367 366 365 362 362 361 361 359 357 358 353 351 349 349 350 349 347 345 349 346 349 352 351 352 352 351 350 351 352 358 360 360 361 360 361 361 361 360 359 361 361 361 362 363 360 356 355 354 355 354 354 354 354 353 353 351 351 351 352 352 351 350 349 350 350 350 349 347 350 351 351 351 350 350 350 350 350
368 369 369 368 367 365 367 365 366 366 365 365 364 363 361 359 357 354 355 351 348 345 349 347 343 338 337 340 343 345 349 347 346 347 349 351 353 356 357 352 351 354 357 359 358 356 356 358 362 361 363 362 359 359 360 357 356 353 353 353 354 354 354 352 352 352 351 352 351 351 351 350 351 349 349 350 347 346 349 348 346 348 349 348 349
367 368 368 369 368 367 366 366 366 365 363 362 362 361 359 357 356 352 350 351 349 351 352 350 339 343 345 340 336 335 341 343 344 345 345 348 351 350 351 348 351 354 357 356 355 356 355 356 357 358 358 358 357 358 357 354 356 354 354 354 354 354 355 354 354 354 353 353 353 353 352 352 352 351 350 349 348 348 348 348 347 348 349 348 348
366 367 368 369 369 368 367 366 367 367 364 361 361 359 359 356 354 353 352 345 344 347 352 351 346 343 335 336 337 335 331 336 339 343 344 347 347 347 350 348 351 356 354 350 350 354 356 357 356 355 356 357 357 355 355 355 355 353 353 354 354 354 354 353 352 352 352 352 350 349 350 350 350 350 351 351 350 350 350 350 350 349 349 346 344
366 367 367 368 369 369 368 368 367 367 365 362 361 360 357 353 354 353 351 343 340 342 350 350 348 351 344 337 335 332 332 335 336 341 342 343 344 346 352 349 347 354 350 352 356 354 353 354 357 357 356 356 357 356 354 353 352 352 355 354 352 351 351 351 349 348 349 349 348 346 346 346 346 347 347 347 348 349 350 350 349 348 349 348 347
367 367 367 367 369 369 369 368 368 365 364 363 363 360 355 351 351 351 349 349 343 343 344 353 352 352 351 350 347 336 335 339 337 331 346 343 347 347 350 348 352 353 355 354 353 353 353 352 355 355 357 357 356 356 353 347 348 347 350 355 351 347 346 347 348 346 346 346 345 344 344 344 344 344 343 344 345 345 347 348 348 348 348 348 348
366 367 367 368 369 370 369 368 367 367 366 364 362 359 355 351 351 349 349 351 348 342 343 344 348 350 348 345 349 347 344 339 333 337 333 341 343 342 343 347 350 353 352 348 347 351 353 353 351 354 354 355 356 355 352 349 346 345 346 351 350 345 343 346 346 345 344 344 344 344 343 343 343 343 344 344 344 344 344 344 344 344 344 344 345
365 368 369 369 369 370 370 368 367 366 364 363 361 359 356 355 353 350 352 352 349 345 343 343 341 344 349 346 346 347 348 347 346 338 335 332 337 341 343 344 347 344 344 344 345 344 350 353 351 351 350 351 353 353 352 350 349 346 344 344 346 344 343 344 344 344 343 342 342 344 344 343 343 344 343 344 344 345 344 344 344 344 344 344 344
367 368 369 369 370 369 369 367 366 365 364 364 362 360 356 354 353 352 350 352 351 349 349 347 344 342 345 344 346 347 346 346 346 345 337 334 332 334 337 341 343 343 343 344 346 347 347 350 351 354 352 351 351 351 348 348 347 347 341 341 344 347 346 344 344 342 341 343 343 340 341 343 343 343 343 343 343 343 343 343 342 342 343 342 341
368 369 370 370 370 369 367 365 365 364 364 364 361 358 356 354 354 352 352 351 353 351 348 349 348 346 345 346 342 343 344 342 340 340 339 341 333 333 335 335 335 338 345 343 346 345 345 347 348 345 347 351 351 350 348 346 348 345 345 342 343 345 347 347 347 346 344 344 345 344 339 339 341 343 343 343 343 342 343 341 340 341 339 339 340
366 368 369 369 369 368 365 365 365 365 364 364 361 358 355 353 354 354 353 351 351 352 351 351 351 349 347 345 342 339 339 338 339 338 339 337 334 331 333 334 333 335 344 346 349 346 346 347 346 343 350 351 352 353 352 350 350 350 347 347 345 344 345 347 348 347 348 344 343 342 340 339 337 339 341 343 344 343 342 341 342 341 340 339 339
367 366 367 366 367 365 365 365 364 364 364 364 362 360 357 354 354 353 353 352 353 353 351 350 349 348 347 344 344 342 342 338 340 342 340 338 337 335 334 339 339 337 343 344 345 344 345 346 346 346 349 348 352 354 354 355 354 350 350 350 346 345 346 346 347 348 348 347 345 344 343 342 339 338 337 338 339 341 342 343 342 342 341 340 339
364 364 365 367 367 364 363 363 363 363 364 363 361 359 357 354 354 353 352 353 352 352 350 349 349 346 345 345 344 343 341 343 342 339 341 343 339 335 335 336 333 335 341 340 337 339 340 342 345 347 348 352 351 354 354 353 348 352 349 350 346 345 345 345 347 347 347 346 345 345 344 344 344 343 342 341 341 340 340 339 339 339 339 339 340
363 364 365 367 366 367 366 365 366 365 365 364 361 359 357 355 354 353 352 353 354 353 351 350 351 351 351 348 346 345 344 344 343 342 339 338 337 334 338 337 335 333 340 339 342 334 336 341 344 349 349 349 349 352 353 349 349 352 347 348 348 344 344 343 344 344 345 345 344 345 344 345 344 344 343 342 342 343 343 342 340 339 338 338 337
364 367 368 368 368 368 367 366 365 364 365 362 360 358 357 355 354 354 353 354 353 352 351 350 349 350 350 348 347 347 345 345 341 343 341 339 337 338 338 333 330 331 333 338 339 337 333 341 341 343 349 351 349 351 352 350 349 348 346 351 351 347 344 342 341 342 342 343 343 344 345 344 344 345 345 344 344 344 343 343 344 344 344 342 340
367 368 368 368 368 367 367 366 367 364 364 362 360 357 356 354 353 354 353 352 351 352 352 351 348 350 348 349 349 343 347 345 344 343 342 342 342 342 340 336 330 328 332 331 333 334 339 337 344 346 348 349 349 349 346 343 345 348 345 348 349 350 346 343 342 341 340 341 342 342 343 343 343 343 343 344 345 344 344 344 344 344 344 344 343
366 368 367 368 368 368 366 365 365 365 364 362 360 358 357 354 353 353 351 350 351 352 351 351 350 349 348 349 346 346 348 350 347 345 347 348 344 342 341 337 337 331 330 329 332 329 336 333 332 346 349 349 352 349 349 349 347 346 346 349 349 351 345 340 340 339 339 339 339 339 340 340 340 340 342 343 343 343 343 344 344 344 344 343 343
364 365 366 367 367 367 367 367 367 365 363 362 360 358 357 354 354 354 352 353 352 352 352 350 349 350 348 348 346 344 348 348 345 347 348 347 343 343 342 342 341 334 332 328 330 333 334 338 334 339 345 348 347 349 349 349 347 345 348 349 347 347 341 339 339 339 338 338 337 336 337 338 338 338 337 337 337 339 340 342 343 343 343 343 343
364 365 366 365 366 366 366 366 366 365 364 362 361 358 357 355 354 353 354 354 352 351 352 351 349 350 349 346 348 344 349 344 346 347 348 347 345 344 344 344 342 340 338 335 328 338 337 335 338 339 341 346 343 343 347 349 350 347 349 351 351 346 342 345 340 338 337 336 335 334 333 332 333 334 334 334 335 337 340 340 341 341 341 342 342
362 364 364 364 364 364 364 364 364 364 363 362 360 359 357 355 354 352 353 353 351 351 350 350 349 350 349 347 348 347 348 348 347 347 348 348 347 344 345 344 344 343 341 337 333 333 339 335 339 342 342 343 345 344 345 346 353 345 350 350 352 347 349 349 345 339 337 335 334 333 331 330 331 333 334 335 336 338 339 339 339 338 338 339 340
362 362 363 363 364 364 363 364 363 364 363 361 360 359 357 355 355 354 354 352 351 351 351 350 349 350 349 348 348 347 350 347 346 346 345 347 348 345 346 344 342 344 342 339 336 336 342 342 340 340 343 345 342 347 345 344 346 349 348 349 350 347 345 345 345 342 338 335 333 332 331 331 331 332 333 335 335 337 339 340 338 336 336 336 335
362 361 363 363 364 364 363 364 364 364 363 363 360 359 357 355 354 353 353 352 352 351 351 350 350 349 350 349 348 348 351 346 346 345 345 343 345 342 344 342 341 343 344 340 338 336 336 344 341 344 343 346 343 349 346 344 344 347 347 348 349 347 346 346 345 344 340 336 332 330 330 330 330 331 331 332 333 334 334 335 333 332 332 332 330
362 361 362 362 364 364 364 364 365 364 364 362 361 358 357 355 354 352 352 352 351 350 350 349 349 350 348 348 347 348 349 346 347 345 345 346 344 343 344 344 343 342 345 344 340 338 337 338 344 342 344 345 343 345 348 348 349 349 347 347 344 345 348 347 345 344 339 336 333 331 330 329 329 330 330 331 331 330 330 328 327 328 327 326 326
359 362 362 363 364 364 363 363 364 364 363 362 360 359 358 356 355 353 352 352 351 351 350 349 349 349 348 348 347 347 348 346 347 346 346 346 346 346 345 346 345 344 346 345 344 341 340 338 344 341 343 343 345 347 348 348 346 346 346 347 348 348 346 346 347 346 342 335 333 331 330 329 328 328 327 327 327 326 324 323 324 325 325 325 324
359 361 361 363 363 363 361 362 363 363 363 362 360 358 357 357 356 354 353 352 351 351 351 350 349 350 349 348 348 348 348 346 347 346 346 347 346 345 344 346 345 345 345 345 345 344 341 340 340 345 346 345 345 347 348 344 346 348 349 348 346 347 348 346 345 346 339 333 332 331 330 330 329 329 328 328 328 327 326 325 324 324 323 323 323
358 358 360 360 361 362 362 362 363 363 363 363 361 359 357 356 355 354 354 352 351 351 350 350 350 350 349 349 349 349 348 346 346 346 347 347 347 345 345 345 345 346 346 346 346 345 343 341 342 341 347 343 345 346 348 347 344 343 344 346 348 349 348 346 344 344 345 345 345 345 338 334 332 328 327 328 327 326 326 325 324 323 322 320 318
357 357 358 360 361 361 362 361 361 362 363 362 361 360 358 357 356 354 353 352 351 350 350 349 349 349 348 349 349 349 348 347 347 347 347 347 346 345 346 347 347 346 345 345 346 345 344 342 342 343 342 344 346 342 349 346 345 344 342 341 342 346 347 345 343 345 345 344 341 337 337 336 333 334 327 324 325 326 326 325 324 322 321 318 316
357 357 357 358 360 360 361 361 361 362 362 362 361 360 359 357 355 354 353 352 351 351 350 350 348 348 348 348 348 349 348 349 348 348 348 346 346 346 347 347 347 345 344 343 344 343 342 342 340 340 341 341 343 346 345 344 342 343 344 341 338 340 342 346 346 343 344 344 343 342 338 336 335 332 325 325 327 327 326 327 328 328 325 321 319
358 358 358 358 359 359 360 361 361 361 360 360 360 359 358 357 356 354 353 352 351 350 350 349 349 348 348 348 348 348 349 344 340 342 341 340 347 345 348 348 347 345 344 343 343 342 341 341 340 342 341 341 342 342 341 341 341 340 346 343 341 342 343 341 345 347 344 341 341 341 341 343 340 340 341 341 342 338 337 330 333 334 329 323 322
359 359 360 359 359 359 359 360 361 360 359 360 347 335 339 355 356 355 353 353 352 351 350 349 348 348 347 348 348 341 341 341 337 334 330 331 334 344 349 349 347 345 344 343 342 342 342 340 339 339 338 339 339 344 342 344 345 346 343 343 340 341 342 341 342 344 343 341 338 338 339 341 339 339 340 339 340 341 339 338 337 334 330 325 324
359 360 360 359 358 359 359 359 359 359 359 357 334 329 331 335 351 355 353 352 352 351 350 350 348 348 347 348 348 346 342 340 343 331 330 328 329 331 335 337 340 347 345 343 342 343 341 340 339 340 338 339 341 345 343 343 344 342 342 343 340 340 337 333 331 338 344 340 336 335 334 339 339 335 337 338 338 339 338 337 332 330 326 324 323
360 360 359 359 360 359 358 358 358 358 359 340 329 327 329 329 335 354 354 353 351 351 350 350 350 349 348 347 348 349 347 346 346 344 335 329 327 328 329 331 332 335 337 346 345 343 343 340 339 340 340 341 343 344 342 341 342 342 343 342 341 339 337 334 333 331 339 340 336 332 331 336 338 336 335 337 337 338 336 331 327 327 325 323 323
360 360 360 359 359 360 359 359 357 358 359 337 328 325 326 327 328 340 354 354 352 351 351 351 351 350 350 348 347 348 347 344 345 347 345 341 328 326 327 329 329 329 329 331 336 346 345 344 341 341 343 344 340 341 343 344 345 342 342 340 341 339 337 334 332 331 336 340 335 332 329 331 335 333 332 334 337 338 335 330 327 326 325 323 322
359 359 359 359 360 360 359 358 357 359 359 335 326 323 323 323 326 333 354 353 353 352 351 352 351 351 351 350 350 346 346 347 347 347 348 347 343 339 338 340 341 338 330 327 327 332 343 343 344 343 345 345 341 343 344 347 344 341 341 339 339 335 334 334 337 337 338 339 334 331 328 328 333 331 330 333 335 335 336 331 325 324 323 322 321
359 359 358 358 359 358 358 358 357 356 358 329 323 321 320 320 322 326 351 353 352 352 352 353 354 353 353 352 352 348 347 347 347 346 347 347 346 344 342 342 343 344 343 341 340 341 341 342 346 347 347 346 346 346 347 347 345 344 344 342 340 338 338 338 336 336 335 338 337 332 324 326 331 328 329 330 330 330 331 325 324 323 322 320 320
360 360 360 359 359 359 358 358 356 356 356 326 322 320 319 319 321 338 349 352 351 351 352 353 354 355 354 352 351 348 347 347 339 331 338 347 347 346 344 344 345 345 346 342 335 337 345 345 346 344 344 343 338 346 348 346 345 345 342 341 340 337 334 331 327 328 328 333 336 331 327 325 330 325 326 328 329 328 329 328 323 323 321 320 320
358 358 359 358 360 359 357 357 357 356 357 333 319 317 317 317 322 344 348 351 351 351 352 353 353 354 353 352 350 347 348 348 335 325 327 333 346 345 345 345 345 345 344 347 330 326 327 326 327 330 328 324 324 321 321 326 339 341 341 337 333 332 331 326 325 325 327 330 330 332 327 323 327 326 324 326 326 325 326 327 327 320 318 318 317
355 357 358 359 360 360 357 357 357 357 357 336 315 315 316 315 326 345 348 350 350 350 351 353 354 353 351 344 345 347 347 348 326 322 324 333 344 344 344 343 343 343 344 345 342 338 323 323 323 323 323 325 325 322 322 321 323 333 340 333 334 331 327 326 322 324 326 328 329 330 325 323 325 326 324 325 324 323 324 325 325 321 318 314 315
358 359 359 358 359 360 360 358 344 353 358 339 314 316 315 314 328 348 350 351 349 348 349 349 350 349 348 342 338 340 343 340 323 321 320 329 343 345 344 343 340 340 342 344 341 339 339 338 338 336 336 329 337 340 339 322 324 335 339 336 333 330 326 325 324 325 323 323 329 331 322 321 322 322 322 320 317 319 321 322 322 322 321 320 318
Wind_Speed
3 3 2 2 2 1 1 1 2 2 2 1 1 1 1 2 2 3 2 3 3 3 3 2 2 0 1 0 1 1 1 2 1 2 2 1 1 2 6 7 7 6 5 7 7 5 6 6 5 5 6 5 6 6 5 5 5 6 7 7 6 6 7 6 6 5 5 5 5 5 4 4 3 1 2 3 2 2 2 2 2 2 3 3 2
3 3 3 3 2 1 1 1 2 2 2 2 1 1 1 1 2 2 3 4 4 3 3 3 2 1 1 2 2 2 1 2 2 1 1 1 1 2 5 6 6 5 7 6 6 7 7 7 6 4 4 4 6 7 6 5 5 6 6 6 6 6 6 6 5 6 5 6 5 6 5 5 5 4 4 4 4 3 3 3 3 3 3 4 4
3 3 3 3 2 1 1 1 2 2 2 2 1 2 2 2 2 2 2 3 3 3 3 3 2 2 2 2 2 1 1 1 2 1 1 1 1 1 3 7 7 5 6 7 8 8 8 7 8 6 6 6 6 7 6 6 6 6 5 4 5 5 6 6 6 6 6 6 6 5 5 5 5 5 5 5 5 5 5 4 4 4 4 5 6
4 4 4 3 3 2 2 2 2 2 2 2 2 2 2 2 1 0 1 2 2 3 3 3 2 2 2 2 1 1 0 0 1 1 1 2 1 1 1 1 5 5 5 5 8 8 8 8 7 8 8 8 8 7 7 5 7 6 3 1 2 5 10 8 7 6 7 7 6 6 5 6 6 6 7 6 6 7 7 5 5 5 5 5 6
5 5 4 3 3 2 3 3 3 2 2 2 2 1 1 0 0 1 1 1 1 2 2 2 2 1 2 2 1 1 1 0 1 1 2 1 2 1 3 2 3 5 5 5 8 9 9 9 8 8 8 9 8 8 8 8 7 6 2 3 5 4 7 10 9 7 5 7 7 7 7 7 8 7 8 8 8 8 7 7 7 6 6 6 6
5 5 4 4 3 3 3 3 3 2 1 1 1 1 1 1 1 1 1 1 1 2 2 2 2 1 1 2 1 0 0 1 1 1 1 1 3 1 2 3 1 1 3 6 6 8 9 7 6 7 8 8 8 6 10 9 9 6 5 6 6 4 6 8 10 8 5 6 8 8 7 7 8 8 8 8 8 6 6 7 8 7 7 7 8
6 5 4 4 4 4 3 3 3 2 2 1 1 2 2 1 1 1 1 1 1 2 3 2 3 2 2 2 2 1 1 1 1 1 1 1 2 2 2 2 2 3 1 1 4 5 5 5 5 6 6 6 7 7 8 8 7 7 8 8 6 6 9 11 10 8 8 8 8 7 6 6 6 7 8 10 8 7 7 7 7 8 7 8 10
6 6 5 5 4 4 3 3 2 2 2 1 2 2 2 1 1 1 0 1 1 1 1 2 2 2 1 1 1 1 1 1 1 1 1 1 1 2 2 2 1 1 1 0 1 2 5 6 5 5 3 7 5 4 5 6 7 7 7 7 6 6 6 10 10 9 10 9 10 9 9 8 8 8 8 8 8 7 5 7 7 10 10 9 8
6 5 5 5 4 4 4 3 2 2 2 2 1 1 2 2 2 1 1 1 1 1 1 1 1 2 1 1 1 2 2 1 1 1 1 1 1 2 3 2 2 3 2 2 1 1 3 3 6 7 6 5 4 4 4 6 6 7 6 7 8 8 9 11 12 9 9 10 10 11 9 9 9 9 9 8 7 6 6 7 7 7 9 10 10
6 5 5 5 4 4 4 3 2 2 2 2 2 2 3 3 2 2 1 0 0 2 1 0 1 1 1 1 2 2 2 2 1 1 1 0 0 2 2 2 3 2 1 1 2 2 2 5 5 4 6 3 3 5 6 6 5 5 5 3 4 5 6 7 9 9 10 9 10 10 8 9 9 9 8 8 8 7 8 9 8 9 10 9 6
6 6 6 5 5 4 4 4 3 3 2 3 2 2 2 3 3 3 1 1 1 2 2 2 1 1 1 1 2 3 2 2 1 0 1 1 1 1 2 2 2 2 1 1 1 1 0 1 2 3 6 10 11 5 6 3 3 4 5 5 3 4 5 6 7 8 8 7 8 8 9 10 10 8 8 7 6 5 5 7 9 9 10 10 8
6 6 6 5 5 5 5 4 4 3 3 4 3 3 4 4 4 4 3 2 1 0 1 1 0 1 1 1 2 2 2 2 2 0 1 1 0 0 1 3 2 2 2 1 0 1 1 1 0 1 1 5 6 6 6 4 3 3 3 3 4 4 4 4 4 5 5 6 7 7 7 7 6 6 5 6 7 7 7 8 8 9 9 9 10
6 6 6 5 5 5 5 4 4 4 4 5 5 4 4 3 3 3 3 2 2 1 0 1 1 1 0 1 0 2 1 2 2 1 2 0 1 0 1 1 2 3 3 2 2 1 1 1 1 1 1 1 4 7 5 4 3 1 1 2 2 4 3 3 2 2 3 3 3 3 4 2 3 4 2 6 6 5 6 7 6 8 9 9 9
6 6 5 6 5 5 5 5 5 5 5 5 4 3 4 3 3 3 2 3 2 2 1 2 2 3 3 3 1 1 1 1 0 1 1 1 1 0 1 1 2 3 3 3 3 2 2 2 1 2 1 1 1 3 3 3 4 3 2 1 3 3 3 2 2 1 1 2 2 2 2 1 2 2 3 2 3 4 4 1 4 8 9 7 8
7 6 5 6 6 6 5 5 5 5 5 6 5 6 4 5 5 4 3 2 2 1 2 3 1 1 1 2 3 3 2 1 1 1 0 1 0 1 1 2 3 2 2 2 2 2 2 2 2 2 2 1 1 2 3 3 5 5 5 5 4 3 4 4 5 4 3 4 6 6 6 5 3 2 1 1 2 3 4 4 5 8 6 6 6
7 7 6 6 6 6 5 5 5 5 6 6 6 6 4 4 5 5 4 3 4 3 2 2 2 3 4 3 1 2 2 3 3 1 1 0 0 1 1 1 2 2 1 2 3 3 2 2 2 2 2 2 2 2 3 4 5 5 5 5 6 6 6 6 5 5 6 5 5 5 6 6 6 5 5 5 3 1 2 3 3 4 4 4 5
7 7 7 7 6 6 6 5 5 6 6 6 6 6 5 5 6 5 6 4 3 3 2 2 3 3 2 3 3 3 3 2 3 2 1 2 1 0 1 1 1 2 2 3 2 2 2 2 2 1 2 2 2 2 2 2 2 2 3 4 4 4 4 4 4 4 4 5 5 5 5 5 5 5 5 4 5 5 5 3 3 1 2 3 3
7 7 7 6 7 7 6 6 6 6 6 6 5 4 5 6 6 6 6 5 4 4 4 2 1 3 3 3 3 3 2 2 3 3 1 0 1 1 0 1 1 0 1 1 2 2 1 1 1 1 1 1 1 1 1 1 2 1 1 3 2 3 3 3 3 4 4 4 4 4 5 4 4 4 5 5 5 5 5 5 4 4 4 3 1
8 8 7 7 6 6 6 6 6 6 5 5 5 6 6 6 5 5 5 4 5 5 5 4 2 2 3 4 3 2 2 4 4 1 4 3 1 2 2 1 1 1 1 1 1 2 2 1 1 1 1 0 0 0 1 1 1 1 1 2 0 2 3 2 2 2 3 3 4 3 4 4 4 3 4 4 4 5 5 4 4 4 4 3 3
7 7 7 7 7 6 6 6 6 6 6 6 6 6 5 4 5 5 4 5 6 6 5 4 4 3 3 2 2 1 2 2 2 4 3 3 4 3 3 3 3 3 3 2 2 1 1 1 1 1 1 1 1 1 1 0 0 0 1 2 2 2 2 2 1 1 2 3 3 3 2 2 2 2 2 3 3 4 3 3 3 3 3 3 3
7 7 7 7 7 7 7 7 7 8 7 6 6 6 7 7 6 5 6 5 5 5 4 4 5 4 4 2 2 2 2 1 1 2 4 4 4 5 5 3 3 4 3 3 2 2 2 1 1 1 1 1 1 2 1 1 1 1 1 1 2 1 1 0 1 2 1 1 2 2 2 1 1 1 1 1 1 2 2 2 2 2 2 2 2
7 8 7 7 7 7 7 9 10 9 7 7 7 6 7 7 7 7 7 7 5 5 5 4 4 3 4 3 3 3 2 3 3 4 2 4 4 5 5 5 5 4 3 4 4 3 2 2 2 3 2 2 2 2 2 2 2 2 1 1 2 3 1 2 3 3 3 2 1 2 1 2 1 0 1 1 1 1 1 1 1 0 1 1 1
7 7 8 8 8 8 8 9 10 9 7 7 7 7 8 7 7 7 7 8 5 6 5 4 3 4 5 4 4 4 3 4 4 5 5 4 5 5 5 5 5 4 3 2 2 3 3 3 3 3 2 2 2 2 3 3 2 2 1 3 3 3 3 4 4 4 3 3 3 3 3 3 3 3 2 2 2 3 3 3 3 3 3 2 2
7 7 8 9 7 9 10 10 9 10 8 7 7 7 7 7 6 6 6 7 6 6 5 5 6 4 6 5 4 4 3 3 3 4 4 4 5 5 4 2 3 5 1 1 3 4 4 4 4 4 3 3 3 2 2 3 3 3 4 4 4 4 4 5 6 6 5 4 4 4 4 4 4 4 5 5 4 5 5 5 5 5 5 5 4
8 9 9 10 8 9 10 10 10 10 8 7 7 8 6 6 6 7 7 7 6 7 6 7 6 5 5 5 4 4 4 2 1 3 4 3 4 4 3 2 4 4 2 1 2 3 5 6 5 4 4 3 3 3 3 4 4 3 5 4 6 6 6 6 7 7 6 6 6 6 6 6 6 5 5 6 6 6 6 7 7 7 7 6 6
10 10 9 10 9 9 10 11 10 10 9 8 8 8 7 7 7 7 8 6 6 8 7 8 6 6 4 4 5 4 4 3 3 3 4 5 5 6 3 2 3 4 0 2 2 4 4 4 5 4 4 4 4 3 4 4 5 5 5 5 5 8 8 8 8 8 8 8 8 7 7 7 8 7 7 7 8 8 8 8 8 9 9 9 8
10 9 9 10 10 9 10 10 10 11 8 8 8 8 8 7 6 7 7 6 7 7 7 7 6 6 5 5 5 5 4 3 4 4 4 5 5 4 5 4 4 4 4 3 3 5 6 1 2 2 3 3 3 3 3 4 5 3 5 6 7 8 8 9 9 9 9 9 9 9 9 9 9 9 8 8 8 9 9 9 10 10 10 10 9
9 9 10 10 10 10 10 10 10 10 9 9 9 8 8 8 7 6 7 5 7 8 6 7 7 8 7 5 4 6 4 4 4 4 4 4 3 4 4 4 4 4 4 4 4 5 4 4 2 1 1 1 2 2 2 4 4 3 6 5 5 5 9 10 9 9 9 9 9 10 10 10 10 10 10 9 9 8 9 10 10 11 11 11 10
9 9 10 10 10 10 10 10 12 10 9 10 10 9 9 8 8 8 8 7 7 8 7 7 7 7 6 6 6 5 4 4 4 4 4 3 3 3 4 4 4 4 4 4 4 4 2 3 5 2 1 2 2 1 1 1 1 2 3 3 4 5 5 7 8 8 8 9 10 10 10 10 10 10 10 10 10 9 10 10 10 10 10 10 11
10 9 10 11 10 11 10 10 9 10 11 10 10 10 9 8 9 8 8 7 7 6 7 7 7 6 6 6 6 6 4 5 5 5 5 4 4 4 4 3 3 4 3 4 3 2 2 2 4 2 2 2 2 2 1 2 2 4 4 4 4 4 3 4 6 8 9 10 10 10 10 11 11 11 11 10 10 9 10 10 10 10 10 10 10
10 10 10 11 10 11 11 11 10 10 10 10 10 9 10 9 9 8 8 8 7 7 7 7 7 6 7 7 6 6 5 6 5 5 5 5 5 4 3 3 4 4 3 3 4 2 1 2 2 2 3 3 2 2 3 3 3 4 4 4 4 4 5 6 8 9 10 10 10 10 11 11 11 11 11 10 10 10 9 10 10 10 10 10 10
11 12 11 12 12 12 12 12 12 11 11 11 10 10 10 9 9 9 9 10 9 9 8 8 7 7 8 8 8 7 6 5 6 5 5 5 5 5 4 4 4 4 4 4 5 4 3 2 2 3 4 3 3 4 5 4 2 5 4 4 3 2 4 5 7 9 10 10 10 11 11 12 12 12 12 12 11 10 11 12 11 11 11 10 10
11 12 13 13 13 13 13 12 13 12 12 11 10 10 10 10 9 10 9 10 10 9 8 9 8 8 9 9 9 9 7 7 6 6 6 6 6 5 5 5 5 5 5 5 5 5 3 3 3 4 3 4 5 5 5 4 4 3 4 4 4 5 5 5 5 7 10 10 10 10 11 11 11 12 12 13 12 11 11 11 12 12 11 11 11
12 13 14 13 12 13 13 13 13 13 12 12 11 10 10 11 10 8 9 11 11 10 9 9 10 8 9 10 10 9 8 9 8 8 7 7 7 7 6 6 6 6 6 6 6 5 5 3 4 4 4 5 5 5 5 5 4 3 4 3 4 5 5 5 5 5 7 8 9 9 10 10 11 11 12 13 13 13 12 12 12 12 12 12 11
13 13 13 14 13 13 13 13 13 13 12 12 11 11 11 12 12 11 11 12 12 11 11 11 11 10 10 10 11 10 7 9 9 9 9 8 8 8 8 7 7 7 7 7 6 6 6 5 3 4 4 5 6 5 5 4 3 4 4 5 5 4 4 5 6 6 4 7 8 8 9 10 10 11 11 11 12 12 12 12 12 12 11 11 10
13 13 13 14 13 13 13 13 13 13 13 12 12 12 12 13 12 12 12 12 12 12 12 12 12 11 12 11 11 12 10 11 10 9 9 9 8 8 9 8 8 8 7 7 7 6 5 5 4 4 3 4 5 5 4 4 5 4 5 4 4 5 6 5 5 6 5 4 6 8 10 11 11 11 11 11 11 11 11 11 11 11 11 11 10
15 13 13 13 13 13 13 14 14 14 14 14 13 13 12 12 13 12 12 12 12 12 12 12 12 12 12 13 12 12 12 12 11 10 9 11 9 8 9 8 7 7 6 6 7 7 6 6 5 4 4 4 4 4 4 4 4 4 4 5 5 5 6 6 6 5 6 8 10 11 11 11 11 11 11 12 13 13 12 11 10 10 11 11 11
16 15 14 13 13 14 15 15 15 14 14 13 14 14 14 13 12 12 12 12 12 12 12 12 13 13 13 13 12 13 13 13 12 11 10 12 9 9 10 9 8 7 7 7 7 7 7 7 6 6 5 5 4 4 4 3 4 4 4 4 4 4 5 5 5 4 3 3 4 4 6 8 10 10 11 12 12 12 12 11 9 9 10 10 11
17 16 16 15 13 14 15 15 15 15 14 14 13 13 13 13 13 13 13 12 12 11 12 13 14 14 13 13 13 13 14 14 13 12 11 11 9 11 10 9 9 8 8 8 8 8 8 7 7 7 6 5 4 4 2 1 2 4 5 5 5 3 4 4 4 2 3 4 5 7 8 8 10 10 7 8 9 10 11 10 10 10 9 10 10
18 18 17 16 14 14 15 15 15 14 13 13 13 13 13 13 12 13 13 12 13 12 12 13 14 13 14 14 14 14 14 14 14 12 12 10 9 10 10 9 9 9 9 8 8 8 8 8 7 7 6 6 5 4 3 3 4 5 5 4 5 5 5 5 4 3 3 4 5 5 4 7 8 9 11 11 12 10 9 9 9 10 10 9 8
15 17 17 16 15 15 15 15 15 14 13 13 12 12 13 13 12 13 13 13 13 12 12 13 13 13 13 14 14 15 15 15 17 12 12 11 10 10 10 10 10 9 9 8 8 8 8 8 8 7 6 6 6 5 5 5 5 5 2 3 5 6 6 6 3 2 2 4 4 4 4 4 4 4 4 6 5 6 8 9 7 10 11 10 9
15 15 16 16 16 16 16 15 14 13 13 11 13 18 15 13 13 12 12 13 14 13 12 12 13 13 14 14 14 17 17 17 16 15 15 16 15 12 10 10 10 9 9 9 9 8 8 8 8 7 7 7 6 6 5 5 4 3 4 4 5 5 5 6 6 3 0 3 2 4 5 5 4 5 5 6 6 6 7 6 6 5 4 5 7
17 15 15 17 16 15 16 16 16 14 13 12 17 17 18 18 14 13 12 13 13 13 13 12 13 13 14 15 13 13 15 14 15 16 15 16 16 16 14 13 12 11 10 11 10 9 8 8 8 8 8 8 6 3 4 4 4 4 4 4 4 4 4 6 7 3 3 1 6 7 7 5 6 8 6 6 6 6 6 5 4 4 6 7 8
16 15 15 16 15 15 14 16 17 15 14 14 17 19 19 19 17 13 12 12 12 13 13 13 12 12 13 13 11 9 12 14 13 13 14 16 16 16 15 14 14 14 12 11 9 8 9 9 8 9 8 7 3 2 4 5 4 5 5 4 4 4 5 6 7 8 2 2 6 8 9 7 6 8 8 6 6 6 5 4 6 7 7 8 8
14 16 16 16 16 16 16 16 17 16 14 15 18 20 20 20 20 17 12 12 12 13 14 14 13 12 11 10 10 9 8 13 12 12 12 12 14 16 15 14 14 15 14 13 11 10 8 9 9 9 7 3 3 3 5 5 4 6 4 4 4 4 5 7 8 8 6 4 6 8 9 8 7 8 8 7 6 5 5 6 7 6 7 8 8
16 16 17 18 16 17 17 18 19 15 15 15 21 21 21 21 21 18 13 13 13 13 14 14 12 13 12 11 9 9 9 11 12 12 11 11 11 11 10 10 10 12 13 13 12 10 7 8 8 9 5 5 5 6 6 6 6 6 5 5 4 5 6 7 6 6 7 5 8 8 8 8 6 7 8 7 6 5 5 4 5 7 7 8 9
17 17 17 19 19 20 20 19 18 18 16 16 22 22 22 22 22 19 14 12 12 12 13 14 13 12 12 11 10 10 11 11 11 13 12 11 11 10 11 11 12 11 11 12 11 10 8 8 7 7 6 6 7 6 5 5 7 5 5 5 5 5 5 6 6 6 7 5 5 5 7 8 7 8 8 8 7 7 7 6 5 6 6 7 7
15 15 15 16 18 18 18 21 21 20 19 18 22 23 23 22 22 13 13 14 14 12 12 13 13 11 11 10 10 11 11 11 13 16 13 10 11 11 12 12 11 10 10 11 10 10 8 9 8 8 8 7 5 5 3 4 4 4 4 3 3 4 5 6 7 7 8 4 2 5 7 8 7 8 9 8 7 8 7 8 6 3 5 6 7
16 17 17 17 16 18 20 22 22 17 18 17 22 23 23 24 18 12 13 15 16 13 13 13 12 11 10 11 11 11 11 11 12 15 15 12 11 13 13 12 10 10 9 7 7 8 9 10 12 8 2 5 4 4 4 2 3 3 4 4 5 5 5 7 7 7 7 5 3 5 6 9 7 8 8 7 7 9 9 8 6 6 5 6 8
17 18 17 15 16 17 21 23 21 19 18 17 25 24 25 25 21 15 13 15 18 17 14 13 10 10 11 14 14 13 12 11 15 17 17 14 12 13 14 14 13 12 10 7 5 5 4 3 1 1 2 4 5 5 4 5 5 6 5 6 4 5 6 6 7 7 7 6 5 1 5 7 7 6 7 7 8 7 7 6 7 8 8 8 8
17 15 15 16 16 16 18 20 21 20 17 15 24 24 26 25 21 14 14 14 19 17 16 15 14 12 10 13 18 15 13 12 16 17 17 15 13 13 14 13 13 13 11 9 9 8 7 7 5 5 4 5 4 4 5 7 8 8 5 6 6 6 7 7 6 6 7 6 1 3 4 6 6 6 7 8 8 7 7 6 7 8 8 8 9
Wind_Direction
234 237 240 253 264 278 291 320 328 321 321 314 337 339 333 343 345 335 342 333 326 325 331 306 286 271 315 286 252 254 243 236 230 215 215 210 205 169 197 206 207 219 209 204 192 169 213 198 228 239 256 265 254 243 234 225 220 217 213 214 212 213 212 211 211 204 203 205 195 198 178 189 211 246 236 236 227 228 258 273 273 269 285 285 273
232 238 245 246 258 267 298 312 320 317 308 321 346 319 327 329 332 331 336 332 319 326 322 316 287 305 308 304 292 279 257 247 235 221 149 163 151 134 188 194 203 210 207 189 183 182 206 211 223 226 247 261 282 274 246 242 238 234 227 228 232 236 231 228 227 218 214 214 215 214 204 202 213 226 238 245 253 257 252 263 273 277 279 286 281
240 242 242 252 258 282 297 320 298 310 312 311 333 325 326 325 341 332 344 317 315 328 320 315 298 278 290 288 299 275 266 273 269 245 184 103 97 149 167 189 194 205 209 186 177 189 196 209 219 211 217 238 243 255 260 239 244 243 244 257 277 274 253 237 235 236 232 229 228 229 228 227 230 233 240 248 255 266 256 255 264 266 271 275 283
242 244 247 252 260 279 295 294 299 301 302 313 327 334 324 354 67 348 319 295 318 324 319 307 314 316 299 289 296 246 196 3 302 43 49 81 107 116 149 144 201 197 199 201 177 190 195 207 219 217 219 219 227 241 249 249 247 235 242 297 310 309 294 273 249 242 244 244 242 244 244 241 240 243 247 250 244 243 247 243 249 258 263 267 276
233 239 243 252 260 270 272 282 290 301 324 341 321 322 309 266 323 273 250 276 336 339 309 293 330 350 307 354 318 128 106 87 14 51 76 99 99 149 118 186 225 200 200 193 198 193 206 211 216 221 219 218 223 228 243 249 247 255 255 250 240 250 275 291 296 280 280 276 266 250 239 240 239 239 243 249 252 246 243 242 240 244 254 263 266
235 237 246 251 255 259 275 283 291 308 325 234 251 241 254 266 316 273 51 37 16 12 351 349 359 349 332 9 317 338 281 289 22 40 69 94 72 295 145 174 188 178 200 188 203 201 202 213 224 225 225 225 223 221 238 228 237 243 217 232 242 244 273 278 272 281 284 277 264 259 260 257 263 254 254 257 258 274 290 289 274 266 259 261 258
233 241 242 248 254 254 260 273 290 308 272 217 56 352 276 267 284 278 81 84 13 31 1 1 353 338 350 338 327 314 285 298 23 7 26 78 144 148 120 142 168 206 189 131 189 213 221 167 218 230 228 237 229 221 225 237 235 235 233 230 227 230 229 249 263 264 267 271 270 278 266 262 265 285 277 262 264 248 250 258 269 258 262 270 269
230 233 245 244 247 255 258 267 274 270 247 193 180 190 253 229 221 262 135 55 5 62 9 343 340 317 330 292 321 331 290 301 304 297 21 317 80 106 102 117 147 179 217 164 155 236 205 173 157 238 225 251 237 236 228 230 237 234 237 249 240 212 225 253 260 255 253 268 271 266 266 262 260 250 257 272 270 273 269 275 297 299 282 257 252
220 220 240 243 241 247 254 249 245 252 214 195 191 130 258 217 193 171 48 106 313 353 15 323 323 328 295 258 352 351 322 341 305 301 325 306 66 92 113 112 142 186 205 189 191 211 185 200 177 198 208 216 220 240 238 239 231 234 225 218 208 231 196 231 244 247 247 248 251 255 265 269 264 266 260 256 263 271 282 285 269 256 271 288 292
213 215 230 242 243 246 260 256 252 235 216 197 186 182 223 236 194 140 145 195 349 338 326 7 334 291 335 2 20 358 355 338 347 273 246 241 52 86 94 118 147 157 179 219 175 206 228 177 193 213 165 212 157 234 257 250 241 240 247 234 244 209 205 208 224 235 239 239 253 254 258 268 266 265 276 285 287 269 260 265 273 279 282 284 293
211 211 223 228 232 236 241 240 238 226 210 221 198 190 227 238 229 153 156 220 350 345 346 329 341 277 248 43 31 22 11 350 327 263 217 209 82 114 133 120 120 133 123 197 197 205 260 340 200 202 156 171 178 195 235 240 238 232 224 240 200 194 201 213 226 228 230 221 234 233 243 251 256 261 260 248 257 283 267 273 268 268 272 275 268
210 208 216 225 232 234 233 223 221 219 222 242 226 198 222 237 212 190 165 167 173 330 278 254 30 321 318 55 39 5 13 358 327 249 183 204 181 319 102 119 121 123 124 126 58 26 1 12 210 178 146 122 122 157 167 208 216 238 228 231 208 190 203 215 213 219 229 229 236 242 246 249 273 279 285 302 274 249 249 248 266 273 271 277 271
216 212 214 213 224 233 228 223 218 224 234 257 258 244 244 248 210 191 196 202 197 195 147 276 251 168 170 237 239 10 360 11 341 245 210 255 298 101 111 117 125 125 109 104 87 61 58 35 46 48 66 58 134 121 131 167 174 212 238 221 191 201 183 190 192 221 234 242 264 268 265 260 244 262 200 233 276 302 261 251 267 274 267 265 267
218 215 214 216 222 223 219 218 212 226 243 256 249 231 214 207 195 191 202 230 231 274 131 215 203 223 196 194 239 219 17 301 256 171 259 253 271 123 76 91 96 96 101 111 109 92 78 62 37 66 48 57 41 103 146 141 127 86 95 137 136 164 163 153 198 142 10 334 351 359 11 235 223 209 261 240 240 259 279 298 300 283 278 277 289
217 214 217 214 216 220 218 213 216 223 233 240 235 224 216 203 195 211 175 185 208 146 180 243 232 168 239 210 211 221 154 220 192 77 5 285 302 82 55 66 70 82 91 96 86 79 57 42 41 32 39 39 68 68 78 77 68 85 73 62 70 102 112 101 90 106 97 68 60 63 71 74 67 98 32 133 238 248 242 235 224 258 264 275 289
214 212 214 212 211 214 213 208 209 213 233 239 225 230 187 187 200 204 200 208 205 179 162 191 240 172 188 220 171 247 197 190 193 161 292 232 213 105 83 60 83 72 107 76 63 52 59 58 47 41 42 43 43 79 84 70 96 91 83 81 57 48 64 85 83 74 75 78 66 58 57 51 52 59 66 71 76 86 211 230 233 232 222 254 270
215 211 213 213 211 213 209 203 206 209 227 233 227 218 185 194 186 183 194 227 228 195 155 174 212 253 252 168 176 213 243 130 190 149 255 191 145 79 72 349 52 63 38 67 64 61 47 47 37 44 51 64 69 59 69 91 107 96 99 84 67 58 52 47 54 64 61 62 59 54 56 54 46 45 46 46 58 62 70 71 97 137 204 232 256
215 216 215 213 209 208 206 203 204 212 219 225 218 192 184 188 183 193 198 207 235 200 182 153 204 214 253 298 331 339 215 120 221 175 151 157 294 264 30 325 46 98 84 111 110 87 74 57 25 35 28 50 60 59 51 80 82 109 91 82 20 65 78 70 58 60 62 66 60 56 56 61 56 53 49 51 70 67 71 74 77 64 66 86 136
215 214 213 210 211 205 203 206 208 212 200 210 199 200 193 194 177 194 198 187 193 211 205 175 148 199 216 242 271 269 312 172 209 142 196 185 248 217 187 204 231 246 213 231 128 155 128 134 137 35 49 59 132 149 209 117 79 51 11 92 170 59 73 78 77 41 44 52 64 61 56 53 59 58 52 62 66 76 75 79 72 71 66 65 60
218 213 211 208 207 206 202 205 207 214 206 197 206 197 183 182 182 189 185 186 196 212 213 192 203 166 173 209 207 143 224 258 257 230 265 224 203 215 217 211 220 224 228 207 224 105 105 154 150 171 164 170 214 223 236 260 349 343 115 33 3 18 38 39 2 341 1 25 45 61 67 59 56 62 65 57 57 70 79 83 90 85 83 78 72
215 219 211 208 203 205 202 213 219 222 212 205 202 189 189 183 177 180 186 187 196 212 219 207 219 196 162 168 164 158 162 209 224 226 235 233 222 210 215 191 230 227 226 229 209 215 212 190 206 218 211 202 211 225 234 227 226 226 232 105 327 316 236 271 277 285 284 331 9 28 29 57 70 56 76 85 80 67 55 61 73 83 87 87 75
209 216 214 209 207 209 214 221 229 223 199 209 193 185 190 193 190 188 189 190 186 203 215 219 218 207 195 164 180 152 166 176 196 200 209 244 249 217 221 212 218 210 211 223 220 222 217 229 238 229 202 205 208 214 228 237 227 244 115 44 299 314 316 245 231 249 265 282 287 299 326 329 299 232 231 216 218 190 188 219 209 206 137 130 135
205 206 212 210 209 213 219 221 229 225 201 195 193 196 196 196 193 190 189 193 185 194 208 218 212 202 194 192 198 201 209 213 203 205 211 200 219 238 227 227 246 221 188 243 248 242 243 233 240 250 247 243 229 232 236 242 235 236 290 290 288 288 298 289 282 275 264 265 277 285 299 309 312 308 302 284 258 252 247 233 242 237 231 229 231
202 209 206 205 203 217 223 226 226 223 209 197 195 198 199 191 188 187 193 197 189 191 205 209 205 205 209 206 208 216 207 233 224 205 211 226 227 242 246 210 238 243 155 215 245 251 249 246 247 251 246 257 253 251 251 253 245 178 243 230 243 261 273 276 276 279 272 271 270 279 284 288 288 293 294 297 291 283 276 264 253 251 249 247 243
205 210 209 199 196 212 217 218 222 224 211 194 196 193 192 189 192 193 194 190 190 194 203 213 209 210 214 208 216 212 213 218 239 224 209 216 223 239 236 203 242 235 208 236 252 244 245 244 242 243 248 250 262 253 259 260 275 165 217 251 210 242 243 257 263 262 265 264 263 265 272 275 274 267 269 273 277 280 280 279 275 269 265 261 258
206 208 204 195 196 200 207 216 222 215 192 193 193 190 188 192 193 195 196 197 191 196 209 215 209 216 216 202 207 210 216 205 215 220 206 203 206 225 202 194 237 255 159 216 219 258 232 230 242 237 245 251 258 253 250 266 265 163 206 266 231 218 234 242 247 253 253 262 264 260 259 258 263 265 262 265 268 270 271 273 276 274 274 272 269
205 202 192 192 194 195 202 209 212 213 191 191 193 187 187 191 195 197 199 189 195 195 205 208 207 204 203 215 215 213 210 197 210 211 221 217 219 206 188 196 208 229 234 217 230 235 261 208 219 223 230 250 257 248 249 260 269 196 204 239 258 228 220 231 244 247 250 252 255 254 257 262 265 268 266 264 262 264 266 268 270 271 270 269 266
202 193 192 193 195 198 199 209 210 206 188 194 190 188 184 190 192 193 198 187 194 194 200 202 210 207 212 207 211 225 198 196 204 204 212 222 213 196 196 212 223 221 214 243 235 244 223 248 184 163 175 220 230 230 235 241 256 234 225 249 250 249 216 226 237 247 252 255 258 259 259 260 262 263 267 266 263 263 265 265 264 264 265 266 268
204 197 198 196 199 200 202 207 211 199 190 194 192 188 181 189 193 190 197 193 193 194 197 197 208 204 206 199 213 217 194 184 199 201 193 199 211 197 208 221 216 251 243 241 238 260 197 234 249 133 161 167 176 152 170 255 348 295 283 261 260 259 242 221 234 251 258 262 265 266 269 268 266 264 260 261 259 261 264 265 262 264 265 265 266
205 201 197 196 199 197 202 203 199 193 197 197 194 190 183 192 195 192 196 188 190 191 196 199 202 197 200 199 208 217 193 193 204 198 188 196 198 203 208 214 211 232 239 255 259 219 216 185 237 171 166 157 163 165 233 262 185 254 254 256 254 258 273 250 256 257 260 263 264 268 270 271 272 272 272 270 268 262 258 255 256 259 259 260 262
200 197 196 200 198 199 204 205 199 195 195 198 191 189 185 195 194 196 191 189 192 193 192 193 200 193 195 203 200 213 196 208 204 196 195 194 198 201 202 194 201 223 232 224 250 167 232 225 209 221 183 200 231 240 247 254 188 214 240 242 243 248 259 266 257 260 266 270 274 274 273 272 272 271 272 271 270 269 256 252 251 254 257 258 261
204 201 203 204 202 203 205 207 206 201 197 199 193 190 187 196 194 197 192 188 197 199 197 191 196 191 197 202 198 205 198 202 203 198 195 198 196 198 194 196 204 213 210 219 235 250 184 234 214 198 224 209 224 261 274 271 171 192 257 250 251 207 241 251 232 244 256 261 265 267 268 270 271 272 272 272 271 264 259 262 261 258 256 258 260
202 203 204 205 204 204 206 205 206 200 196 196 192 189 189 193 196 194 188 187 196 199 192 189 194 189 198 203 203 207 200 202 202 202 201 195 193 196 192 200 209 200 207 216 234 248 218 203 228 238 215 242 244 239 249 245 239 227 229 254 257 260 262 263 269 215 224 241 250 254 258 261 264 267 270 272 271 265 259 255 261 262 262 262 262
201 205 204 205 204 203 206 204 203 201 195 193 191 189 191 193 195 192 194 191 196 197 190 192 192 193 194 202 206 204 199 207 203 201 204 201 196 202 195 205 210 203 203 220 232 247 255 183 212 214 231 217 249 235 242 252 254 251 254 252 245 251 257 271 265 269 204 235 245 255 259 260 262 262 264 267 269 272 272 271 268 267 266 266 267
205 207 206 205 201 200 204 205 202 203 198 195 195 192 193 191 193 195 197 195 197 195 193 196 194 192 195 200 204 200 194 207 207 208 205 203 203 205 202 200 210 212 199 211 228 237 243 242 220 229 218 215 236 239 233 245 271 274 277 269 269 255 248 257 269 279 216 220 238 253 260 262 260 258 258 260 266 270 273 272 271 270 269 268 267
207 204 207 204 200 197 202 206 205 204 200 197 195 196 194 193 194 194 194 196 198 198 196 196 195 193 197 199 205 201 195 204 206 205 204 202 199 201 204 199 204 212 206 201 214 238 248 258 215 227 224 233 230 246 256 263 269 269 270 282 272 270 272 267 264 269 269 256 259 266 272 277 280 283 283 279 274 265 264 268 272 275 276 274 269
209 203 204 204 202 199 203 207 208 207 203 198 195 198 198 196 196 196 195 196 199 200 199 197 195 195 197 201 200 196 193 201 205 206 201 199 200 199 205 202 205 209 209 204 208 216 236 248 252 224 214 221 237 251 253 263 256 252 248 254 274 284 283 288 284 271 266 257 260 262 267 269 273 275 277 280 282 285 285 281 276 275 274 273 272
208 209 204 202 202 202 204 207 209 209 204 199 195 196 198 196 196 199 197 198 200 200 201 201 200 200 200 203 199 193 195 201 206 203 198 198 195 199 202 203 202 204 208 209 210 211 222 239 244 253 215 222 219 232 222 221 263 276 275 269 257 252 263 274 281 282 289 291 292 259 244 246 242 244 260 271 279 283 284 285 282 272 267 265 266
207 210 209 206 202 203 204 207 210 209 204 201 196 195 196 196 195 197 201 200 201 201 204 206 206 206 206 204 201 197 198 201 204 199 194 191 193 201 201 201 199 200 206 211 208 211 218 228 234 238 252 244 245 257 176 179 251 261 275 287 282 259 248 252 264 260 272 283 274 247 260 290 305 295 292 282 275 275 280 285 284 277 267 256 263
208 210 211 207 204 202 205 208 210 209 206 202 198 195 195 195 194 196 199 199 200 203 205 209 210 209 208 208 208 203 203 203 203 200 189 188 191 200 199 200 199 200 208 210 211 217 222 228 233 233 231 243 239 242 227 240 254 237 227 257 285 283 278 265 248 279 299 291 291 297 236 231 237 232 237 248 250 258 268 274 263 271 277 280 267
208 211 211 211 206 205 207 208 209 208 209 206 199 194 194 195 196 197 198 199 199 202 207 210 212 212 211 212 212 211 206 205 200 196 189 188 189 198 195 195 198 200 207 214 216 216 224 230 232 231 233 234 236 237 234 227 237 268 221 238 267 275 288 292 281 212 257 276 283 287 287 301 298 297 309 301 280 218 229 224 253 239 249 263 272
206 207 211 211 210 205 204 207 207 207 209 208 198 189 190 192 194 198 196 199 201 203 203 209 211 211 214 215 214 210 206 203 198 198 196 195 199 201 191 191 193 196 203 212 216 217 223 227 230 230 234 238 240 227 239 246 250 242 234 230 257 275 283 291 291 309 215 271 294 300 308 311 312 311 298 288 288 275 296 267 302 340 314 284 273
207 206 207 210 210 210 207 206 207 210 209 208 189 186 192 193 194 197 195 197 201 202 204 206 210 211 215 216 218 207 203 200 198 198 201 199 203 209 202 194 194 193 199 207 214 214 216 229 235 234 240 247 252 245 253 274 254 245 252 250 264 274 289 304 304 303 146 331 312 306 301 305 304 301 294 282 284 288 293 292 24 287 273 282 286
205 206 207 208 210 211 212 212 213 212 214 203 181 186 192 194 197 199 199 200 199 202 206 209 211 212 214 213 212 205 199 201 202 197 202 204 205 208 210 204 201 204 206 202 203 207 216 229 235 239 243 246 251 226 261 256 242 236 234 241 246 262 281 280 290 298 344 109 311 304 302 299 295 299 298 288 293 290 293 319 290 275 283 288 291
204 206 208 208 211 211 212 213 217 215 217 188 181 184 191 194 198 202 208 204 201 202 205 208 211 212 211 206 204 193 190 185 196 200 197 205 208 210 211 209 208 208 213 213 210 218 218 222 237 244 240 221 237 246 241 241 242 250 233 236 236 245 266 278 284 294 305 319 298 292 298 304 299 292 292 294 291 293 284 221 211 247 272 282 287
207 209 210 210 211 213 215 217 223 219 217 183 181 182 189 192 195 198 213 207 207 205 204 206 210 213 209 202 196 187 187 187 198 199 198 200 197 204 213 215 215 214 216 219 220 225 236 234 235 241 197 174 220 218 224 217 219 232 237 250 245 264 268 276 303 302 297 302 291 302 292 295 299 300 297 302 302 294 279 272 236 254 264 273 277
208 208 209 213 217 218 219 222 223 226 228 184 180 181 187 190 192 196 210 211 211 210 208 209 213 212 210 207 196 187 182 190 194 193 195 197 197 199 204 209 216 212 207 211 214 213 211 220 220 224 208 210 223 227 221 214 225 237 250 268 271 281 287 295 285 264 268 244 248 266 282 300 302 293 296 303 305 299 300 300 219 228 250 264 270
211 210 211 212 213 212 214 223 223 226 228 187 181 181 184 188 188 194 205 214 214 210 210 212 214 215 211 202 192 189 181 192 189 185 192 191 198 204 203 210 212 211 209 210 201 200 202 201 206 222 229 216 207 220 209 214 217 218 212 195 240 254 269 277 284 291 289 293 228 274 289 296 302 297 303 306 301 296 305 302 313 244 256 277 290
209 210 212 211 212 212 216 222 220 219 228 186 180 179 181 185 181 197 201 213 219 209 214 212 214 214 206 196 191 189 185 198 181 182 191 191 205 208 212 210 209 209 213 183 137 169 178 195 205 216 53 72 108 114 131 160 248 211 212 241 256 261 259 278 285 287 285 298 275 262 291 299 303 304 303 303 304 301 298 302 306 329 329 286 276
213 216 213 213 213 213 216 219 214 213 220 180 179 177 182 182 183 193 198 208 218 219 220 215 209 212 203 188 188 187 189 195 174 184 191 190 208 212 216 215 214 216 211 172 157 161 180 186 160 111 135 135 129 143 150 158 173 198 209 246 265 273 270 271 280 287 295 294 290 290 284 290 309 306 301 302 298 286 296 300 314 311 300 285 264
218 218 216 220 216 214 214 219 211 210 219 188 180 178 182 179 185 195 197 207 216 219 218 218 217 218 206 190 186 189 192 194 180 188 189 189 205 212 212 213 213 214 206 167 163 162 170 188 191 182 168 160 173 194 192 179 190 211 222 250 269 266 264 277 281 282 282 280 80 136 287 295 305 306 312 309 302 306 304 308 302 301 306 308 310